EW5753 Weather Reports


Display with metric or nautical units.
time (UTC)temp
F
wind
direction
speed
MPH
gust
MPH
rain 1hr
in
rain 24hr
in
rain mn
in
humidity
%
barometer
mb
20190422140111 65 193 12.0 19.0 0.00 0.00 0.00 89 1016.5
20190422134606 64 178 12.0 21.0 0.00 0.00 0.00 91 1016.2
20190422133127 63 179 11.0 22.0 0.00 0.00 0.00 93 1016.2
20190422131632 63 167 9.0 15.0 0.00 0.00 0.00 93 1016.0
20190422130117 62 169 9.0 16.0 0.00 0.00 0.00 93 1015.8
20190422124547 62 170 8.0 16.0 0.00 0.00 0.00 93 1015.7
20190422123056 62 164 11.0 19.0 0.00 0.00 0.00 92 1015.3
20190422121542 62 181 12.0 17.0 0.00 0.00 0.00 93 1015.1
20190422120049 62 168 10.0 18.0 0.00 0.00 0.00 93 1015.0
20190422114544 62 177 11.0 18.0 0.00 0.00 0.00 93 1014.8
20190422113047 62 177 9.0 19.0 0.00 0.00 0.00 93 1014.9
20190422111528 62 178 11.0 17.0 0.00 0.00 0.00 93 1015.0
20190422110045 62 164 10.0 19.0 0.00 0.00 0.00 93 1014.8
20190422104538 62 166 9.0 16.0 0.00 0.00 0.00 94 1014.8
20190422103021 62 166 7.0 14.0 0.00 0.00 0.00 93 1014.6
20190422101518 62 170 10.0 19.0 0.00 0.00 0.00 93 1014.6
20190422100030 62 177 8.0 17.0 0.00 0.00 0.00 92 1014.7
20190422094534 62 165 8.0 15.0 0.00 0.00 0.00 92 1014.6
20190422093055 62 164 10.0 16.0 0.00 0.00 0.00 92 1014.7
20190422090014 63 181 9.0 15.0 0.00 0.00 0.00 91 1014.6
20190422084530 63 201 11.0 17.0 0.00 0.00 0.00 91 1014.5
20190422083019 63 142 11.0 18.0 0.00 0.00 0.00 90 1014.4
20190422081502 63 183 11.0 17.0 0.00 0.00 0.00 89 1014.4
20190422080258 63 177 8.0 22.0 0.00 0.00 0.00 88 1014.4
20190422074705 63 142 6.0 16.0 0.00 0.00 0.00 88 1014.5
20190422073313 63 180 10.0 20.0 0.00 0.00 0.00 87 1014.5
20190422071638 64 163 10.0 24.0 0.00 0.00 0.00 85 1014.4
20190422070153 64 206 12.0 22.0 0.00 0.00 0.00 83 1014.4
20190422064638 64 187 12.0 21.0 0.00 0.00 0.00 82 1014.3
20190422063156 64 170 14.0 22.0 0.00 0.00 0.00 81 1014.0
20190422061600 65 161 12.0 19.0 0.00 0.00 0.00 79 1014.4
20190422060211 65 170 12.0 23.0 0.00 0.00 0.00 78 1014.5
20190422054613 65 185 12.0 20.0 0.00 0.00 0.00 78 1014.7
20190422053130 65 190 11.0 16.0 0.00 0.00 0.00 77 1014.9
20190422051619 65 168 11.0 21.0 0.00 0.00 0.00 76 1014.8
20190422050053 66 185 9.0 15.0 0.00 0.00 0.00 76 1014.7
20190422044547 66 162 8.0 15.0 0.00 0.00 0.00 74 1014.7
20190422043113 67 154 9.0 16.0 0.00 0.00 0.00 73 1014.6
20190422041612 67 179 10.0 18.0 0.00 0.00 0.00 73 1014.5
20190422040125 67 177 10.0 17.0 0.00 0.00 0.00 73 1014.3
20190422033043 68 167 11.0 18.0 0.00 0.00 0.00 71 1014.1
20190422031600 69 191 9.0 15.0 0.00 0.00 0.00 70 1014.1
20190422030050 69 164 9.0 14.0 0.00 0.00 0.00 69 1013.8
20190422024554 70 177 9.0 17.0 0.00 0.00 0.00 68 1013.6
20190422023041 70 169 8.0 17.0 0.00 0.00 0.00 68 1013.4
20190422021607 71 154 9.0 14.0 0.00 0.00 0.00 67 1013.1
20190422020059 71 169 10.0 18.0 0.00 0.00 0.00 66 1012.8
20190422014558 72 154 9.0 15.0 0.00 0.00 0.00 66 1012.7
20190422013140 73 170 8.0 14.0 0.00 0.00 0.00 65 1012.5
20190422011541 73 184 9.0 16.0 0.00 0.00 0.00 63 1012.3
20190422010051 74 158 11.0 19.0 0.00 0.00 0.00 62 1012.0
20190422004605 75 154 13.0 20.0 0.00 0.00 0.00 61 1012.0
20190422003120 75 145 13.0 23.0 0.00 0.00 0.00 61 1012.0
20190422001553 76 158 13.0 31.0 0.00 0.00 0.00 59 1012.0
20190422000044 76 183 12.0 23.0 0.00 0.00 0.00 60 1012.0
20190421234548 77 163 14.0 25.0 0.00 0.00 0.00 60 1012.0
20190421233022 77 175 14.0 24.0 0.00 0.00 0.00 59 1012.1
20190421231558 78 159 11.0 25.0 0.00 0.00 0.00 59 1012.3
20190421230024 78 162 11.0 19.0 0.00 0.00 0.00 58 1012.4
20190421224526 77 148 15.0 24.0 0.00 0.00 0.00 58 1012.4
20190421223021 79 187 16.0 20.0 0.00 0.00 0.00 55 1012.2
20190421221547 78 161 15.0 25.0 0.00 0.00 0.00 57 1012.2
20190421220016 79 167 17.0 22.0 0.00 0.00 0.00 56 1012.2
20190421214516 79 178 15.0 30.0 0.00 0.00 0.00 57 1012.3
20190421213016 79 154 16.0 25.0 0.00 0.00 0.00 58 1012.2
20190421211537 79 197 14.0 26.0 0.00 0.00 0.00 58 1012.5
20190421210009 78 151 14.0 26.0 0.00 0.00 0.00 60 1012.7
20190421204531 78 155 15.0 23.0 0.00 0.00 0.00 59 1012.9
20190421203005 78 156 12.0 22.0 0.00 0.00 0.00 61 1013.1
20190421200157 78 169 12.0 23.0 0.00 0.00 0.00 64 1013.1
20190421194653 78 163 16.0 26.0 0.00 0.00 0.00 62 1013.3
20190421193224 78 177 12.0 21.0 0.00 0.00 0.00 63 1013.6
20190421191700 77 133 14.0 25.0 0.00 0.00 0.00 64 1013.8
20190421190136 77 145 14.0 24.0 0.00 0.00 0.00 63 1013.9
20190421184616 77 145 11.0 25.0 0.00 0.00 0.00 64 1014.0
20190421183158 76 189 13.0 31.0 0.00 0.00 0.00 65 1014.2
20190421181704 75 189 16.0 28.0 0.00 0.00 0.00 63 1014.4
20190421180115 74 178 16.0 25.0 0.00 0.00 0.00 66 1014.4
20190421174550 74 143 14.0 23.0 0.00 0.00 0.00 67 1014.3
20190421173121 72 159 16.0 23.0 0.00 0.00 0.00 67 1014.5
20190421171623 72 160 13.0 25.0 0.00 0.00 0.00 69 1014.8
20190421170147 71 181 14.0 24.0 0.00 0.00 0.00 68 1015.1
20190421164546 71 167 12.0 19.0 0.00 0.00 0.00 71 1015.1
20190421163117 70 170 13.0 24.0 0.00 0.00 0.00 71 1015.3
20190421161556 70 182 16.0 25.0 0.00 0.00 0.00 72 1015.2
20190421160059 69 210 12.0 20.0 0.00 0.00 0.00 74 1015.2
20190421154549 68 220 14.0 23.0 0.00 0.00 0.00 77 1015.2
20190421153036 67 173 12.0 19.0 0.00 0.00 0.00 80 1015.0
20190421151518 66 184 13.0 19.0 0.00 0.00 0.00 81 1014.9
20190421150021 65 218 13.0 21.0 0.00 0.00 0.00 83 1015.0
20190421144510 64 166 9.0 19.0 0.00 0.00 0.00 87 1014.8
20190421143011 63 191 12.0 23.0 0.00 0.00 0.00 89 1014.5
20190421141502 62 171 10.0 19.0 0.00 0.00 0.00 91 1014.5